Weather History for Trinidad, CO

Change the Weather History Date:

Thursday, February 20, 2014

  Actual Average Record
Temperature  
Mean Temperature 30 °F 36 °F  
Max Temperature 41 °F 51 °F 77 °F (1981)
Min Temperature 19 °F 21 °F -14 °F (1955)
Degree Days  
Heating Degree Days 35 29  
Month to date heating degree days 652 618  
Since 1 July heating degree days 3810 3900  
Cooling Degree Days 0 0  
Month to date cooling degree days 0 0  
Year to date cooling degree days 0 0  
Moisture  
Dew Point 9 °F    
Average Humidity 50    
Maximum Humidity 88    
Minimum Humidity 11    
Precipitation  
Precipitation T in 0.01 in 0.56 in (1990)
Month to date precipitation T 0.32  
Year to date precipitation 0.09 0.72  
Sea Level Pressure  
Sea Level Pressure 29.89 in    
Wind  
Wind Speed 14 mph (NW)    
Max Wind Speed 43 mph    
Max Gust Speed 58 mph    
Visibility 9 miles    
Events Snow    
T = Trace of Precipitation, MM = Missing Value Source: NWS Daily Summary

Daily Weather History Graph

Daily Weather History Graph

Search for Another Location

Airport:

Trip Planner

Search our weather history database for the weather conditions in past years. The results will help you decide how hot, cold, wet, or windy it might be!

Date:

Astronomy

Feb. 20, 2014 Rise Set
Actual Time 6:40 AM MST 5:42 PM MST
Civil Twilight 6:13 AM MST 6:08 PM MST
Nautical Twilight 5:43 AM MST 6:39 PM MST
Astronomical Twilight 5:13 AM MST 7:09 PM MST
Moon 11:30 PM MST (2/20) 9:32 AM MST (2/20)
Length of Visible Light 11h 55m
Length of Day
11h 02m
Waning Gibbous, 70% of the Moon is Illuminated
Feb 20
Waning Gibbous
Feb 22
Last Quarter
Mar 1
New
Mar 8
First Quarter
Mar 16
Full

Hourly Weather History & Observations

Time (MST) Temp. Windchill Dew Point Humidity Pressure Visibility Wind Dir Wind Speed Gust Speed Precip Events Conditions
12:54 AM 30.9 °F 18.7 °F 27.0 °F 85% 29.58 in 10.0 mi North 19.6 mph 29.9 mph N/A   Overcast
1:07 AM 30.9 °F 20.7 °F 28.0 °F 89% 29.70 in 10.0 mi North 13.8 mph 27.6 mph N/A   Overcast
1:27 AM 30.9 °F 25.2 °F 28.9 °F 92% 29.72 in 5.0 mi North 5.8 mph - 0.00 in Snow Light Snow
1:35 AM 30.9 °F 21.7 °F 28.0 °F 89% 29.72 in 5.0 mi North 11.5 mph - 0.00 in Snow Light Snow
1:54 AM 30.9 °F 21.2 °F 27.0 °F 85% 29.63 in 10.0 mi North 12.7 mph - 0.00 in   Overcast
2:11 AM 30.0 °F 21.1 °F 27.0 °F 88% 29.75 in 10.0 mi North 10.4 mph - N/A   Overcast
2:38 AM 28.9 °F 15.8 °F 25.0 °F 85% 29.76 in 3.0 mi North 20.7 mph - 0.00 in Snow Light Snow
2:47 AM 28.0 °F 15.3 °F 23.0 °F 81% 29.76 in 8.0 mi North 18.4 mph 27.6 mph 0.00 in Snow Light Snow
2:54 AM 27.0 °F 15.6 °F 23.0 °F 85% 29.68 in 7.0 mi North 13.8 mph 24.2 mph 0.00 in Snow Light Snow
3:54 AM 26.1 °F 14.0 °F 19.9 °F 78% 29.73 in 10.0 mi North 15.0 mph 21.9 mph 0.00 in   Overcast
4:54 AM 25.0 °F 17.1 °F 21.0 °F 85% 29.79 in 4.0 mi NNW 6.9 mph - 0.00 in Snow Light Snow
5:09 AM 25.0 °F 17.1 °F 19.9 °F 81% 29.87 in 5.0 mi North 6.9 mph - 0.00 in Snow Light Snow
5:54 AM 24.1 °F 16.0 °F 21.0 °F 88% 29.85 in 4.0 mi WNW 6.9 mph - 0.00 in Snow Light Snow
6:23 AM 23.0 °F 18.4 °F 19.0 °F 85% 29.90 in 6.0 mi NW 3.5 mph - 0.00 in Snow Light Snow
6:54 AM 19.9 °F 12.1 °F 16.0 °F 85% 29.92 in 10.0 mi WSW 5.8 mph - 0.00 in   Scattered Clouds
7:54 AM 24.1 °F 19.7 °F 19.9 °F 84% 29.92 in 10.0 mi West 3.5 mph - N/A   Mostly Cloudy
8:54 AM 28.0 °F 22.8 °F 19.0 °F 69% 29.95 in 10.0 mi WSW 4.6 mph - N/A   Mostly Cloudy
9:06 AM 27.0 °F - 19.0 °F 72% 29.97 in 10.0 mi Calm Calm - N/A   Partly Cloudy
9:54 AM 30.0 °F 25.2 °F 16.0 °F 56% 29.96 in 10.0 mi West 4.6 mph - N/A   Clear
10:54 AM 37.0 °F 25.9 °F 1.0 °F 22% 29.97 in 10.0 mi WNW 23.0 mph 32.2 mph N/A   Partly Cloudy
11:09 AM 37.0 °F 24.7 °F -5.1 °F 17% 29.99 in 10.0 mi WNW 28.8 mph 35.7 mph N/A   Partly Cloudy
11:54 AM 37.9 °F 26.3 °F -7.1 °F 15% 29.98 in 10.0 mi WNW 26.5 mph 36.8 mph N/A   Partly Cloudy
12:54 PM 39.0 °F 27.6 °F -7.1 °F 14% 29.97 in 10.0 mi NW 27.6 mph 36.8 mph N/A   Clear
1:54 PM 39.9 °F 29.0 °F -9.0 °F 12% 29.96 in 10.0 mi NW 26.5 mph 35.7 mph N/A   Partly Cloudy
2:54 PM 39.9 °F 28.0 °F -11.0 °F 11% 29.98 in 10.0 mi WNW 32.2 mph 41.4 mph N/A   Clear
3:54 PM 39.9 °F 28.8 °F -8.0 °F 13% 30.00 in 10.0 mi NW 27.6 mph 34.5 mph N/A   Clear
4:54 PM 37.9 °F 26.1 °F -9.9 °F 13% 30.02 in 10.0 mi WNW 27.6 mph 34.5 mph N/A   Clear
5:54 PM 36.0 °F 25.6 °F -11.0 °F 13% 30.05 in 10.0 mi WNW 18.4 mph 27.6 mph N/A   Clear
6:54 PM 30.9 °F 23.5 °F -11.0 °F 16% 30.09 in 10.0 mi WNW 8.1 mph - N/A   Clear
7:54 PM 30.0 °F 22.4 °F -11.0 °F 17% 30.08 in 10.0 mi WSW 8.1 mph - N/A   Clear
8:54 PM 28.9 °F 21.9 °F -11.9 °F 17% 30.04 in 10.0 mi WNW 6.9 mph - N/A   Clear
9:54 PM 19.9 °F 8.6 °F -8.0 °F 29% 30.07 in 10.0 mi WSW 10.4 mph - N/A   Clear
10:54 PM 28.9 °F - -9.9 °F 18% 29.99 in 10.0 mi Calm Calm - N/A   Clear
11:54 PM 23.0 °F 17.0 °F -6.0 °F 28% 29.98 in 10.0 mi WSW 4.6 mph - N/A   Clear